Location: Newark
(39.0622°N, 106.5590°E)
Time: 02:56:44
(UTC+00:00)

Envisat - Visible Passes

Search period start: 08 December 2019 00:00
Search period end: 18 December 2019 00:00
Orbit: 764 x 766 km, 98.1° (Epoch: 07 December)

Date Brightness Start Highest point End Pass type
(mag) Time Alt. Az. Time Alt. Az. Time Alt. Az.
08 Dec 3.1 10:29:55 10° SSE 10:34:50 54° ENE 10:39:47 10° N visible
08 Dec 5.8 12:11:02 10° SW 12:14:09 16° W 12:17:18 10° NW visible
08 Dec 5.8 22:40:48 10° NE 22:44:34 20° E 22:48:17 10° SE visible
09 Dec 4.0 09:54:16 10° ESE 09:58:19 25° ENE 10:02:23 10° NNE visible
09 Dec 4.5 11:32:27 10° SSW 11:37:07 37° W 11:41:49 10° NNW visible
10 Dec 3.0 10:55:11 10° SSE 11:00:16 85° WSW 11:05:23 10° NNW visible
10 Dec 4.8 23:05:33 10° NNE 23:10:13 36° E 23:14:52 10° SSE visible
11 Dec 3.3 10:18:51 10° SE 10:23:37 42° ENE 10:28:23 10° N visible
11 Dec 5.5 11:59:01 10° SW 12:02:47 21° W 12:06:34 10° NW visible
11 Dec 6.0 22:30:05 10° NE 22:33:10 16° E 22:36:14 10° SE visible
12 Dec 4.0 11:20:55 10° S 11:25:48 47° W 11:30:42 10° NNW visible
12 Dec 3.6 23:30:44 10° NNE 23:35:47 66° E 23:40:50 10° S visible
13 Dec 2.9 10:43:57 10° SSE 10:49:00 76° ENE 10:54:05 10° N visible
13 Dec 6.2 12:27:02 10° WSW 12:28:33 11° W 12:30:04 10° WNW visible
13 Dec 5.2 22:54:30 10° NE 22:58:53 28° E 23:03:13 10° SSE visible
14 Dec 3.6 10:07:53 10° SE 10:12:24 34° ENE 10:16:56 10° N visible
14 Dec 5.1 11:47:12 10° SSW 11:51:25 26° W 11:55:40 10° NW visible
14 Dec 6.2 22:19:44 10° ENE 22:21:46 12° E 22:23:47 10° ESE visible
15 Dec 3.5 11:09:29 10° S 11:14:29 61° W 11:19:31 10° NNW visible
15 Dec 4.0 23:19:32 10° NNE 23:24:29 51° E 23:29:25 10° S visible
16 Dec 3.0 10:32:47 10° SSE 10:37:45 59° ENE 10:42:45 10° N visible
16 Dec 5.9 12:14:20 10° SW 12:17:08 15° W 12:19:57 10° WNW visible
16 Dec 5.6 22:43:34 10° NE 22:47:31 22° E 22:51:27 10° SE visible
17 Dec 3.9 09:57:00 10° ESE 10:01:12 27° ENE 10:05:25 10° NNE visible
17 Dec 4.7 11:35:30 10° SSW 11:40:04 34° W 11:44:40 10° NNW visible
